sat.trackr.live / text

‹ back to catalog

STARLINK-6064

NORAD 56805 · 2023-078AQ

PAYLOAD ACTIVE UNKNOWN

§ Identity

Operator
Country
US
Launch date
2023-05-31
Launch site
AFWTR
Launch vehicle
Mass (kg)
RCS (m²)

Purposes: comms

External: N2YO · Heavens-Above · Gunter

§ Orbital elements

Epoch: 2026-09-20T22:00:03.000096Z

Period
95.63 min
Inclination
70.0005°
Eccentricity
0.0004846
Mean motion
15.05866573 rev/d
Perigee alt
545.5 km
Apogee alt
552.2 km
Semi-major
6,927.0 km
B*
2.7099e-4
RAAN
192.0958°
Arg perigee
254.0599°
Mean anomaly
324.8518°
Rev number
566

§ Raw data

STARLINK-60641 56805U 23078AQ  26263.91670139  .00003847  00000+0  27099-3 0  99902 56805  70.0005 192.0958 0004846 254.0599 324.8518 15.05866573  5662

JSON: /api/v1/satellites/56805 · /tle

For live sub-satellite position, see the globe view (requires WebGL).

§ Visibility from observer

Set your observer location to see the next 7 days of passes ≥ 10°. The values pass through the URL so the page stays shareable.

No JS? Fill the form by hand. The geolocation button needs JavaScript.